This demonstration page uses our WeatherBlox Daily Observations layout. Learn more.

39.92423, -83.80882

Hourly Observations for April 1, 2015

Temp ( °F °C ) Dew Point ( °F °C ) Humidity (%) Winds ( mph kmh ) Pressure ( in mb ) Visibility ( mi km ) Precip ( " mm )
12:56 am 00:56 Mostly Clear with Mist and Fog 33 0.5 32 0 96 96 SSE 6 9 30.06 1018 6 9.65604 0 0
1:56 am 01:56 Mostly Clear with Mist and Fog 32 0 31 -0.5 96 96 SE 5 7 30.06 1018 6 9.65604 0 0
2:56 am 02:56 Mostly Clear with Mist and Fog 32 0 31 -0.5 96 96 S 5 7 30.06 1018 6 9.65604 0 0
3:56 am 03:56 Mostly Clear with Mist and Fog 32 0 31 -0.5 96 96 S 5 7 30.06 1018 6 9.65604 0 0
4:34 am 04:34 Mostly Clear with Mist and Fog 28 -2 28 -2 100 100 SE 3 6 30.09 1019 1.5 2.41401 0 0
4:36 am 04:36 Mostly Clear with Mist and Fog 28 -2 27 -3 93 93 SE 3 6 30.09 1019 0.75 1.207005 0 0
4:46 am 04:46 Mostly Clear with Mist and Fog 27 -3 27 -3 100 100 SE 3 6 30.12 1020 1.5 2.41401 0 0
4:48 am 04:48 Mostly Clear with Mist and Fog 27 -3 27 -3 100 100 SSE 3 6 30.09 1019 3 4.82802 0 0
4:56 am 04:56 Mostly Clear with Mist and Fog 27 -2.7 27 -2.7 100 100 Calm 30.06 1018 4 6.43736 0 0
5:11 am 05:11 Mostly Clear with Mist and Fog 28 -2 28 -2 100 100 Calm 30.12 1020 1.5 2.41401 0 0
5:13 am 05:13 Mostly Clear with Mist and Fog 28 -2 28 -2 100 100 Calm 30.12 1020 1 1.60934 0 0
5:16 am 05:16 Mostly Clear with Freezing Fog 28 -2 27 -3 93 93 Calm 30.12 1020 0.5 0.80467 0 0
5:27 am 05:27 Mostly Clear with Freezing Fog 27 -3 27 -3 100 100 ESE 3 6 30.12 1020 0.25 0.402335 0 0
5:44 am 05:44 Mostly Clear with Freezing Fog 27 -3 27 -3 100 100 Calm 30.12 1020 0.5 0.80467 0 0
5:48 am 05:48 Mostly Clear with Mist and Fog 27 -3 27 -3 100 100 S 3 6 30.12 1020 1 1.60934 0 0
5:56 am 05:56 Mostly Clear with Mist and Fog 27 -2.7 27 -2.7 100 100 SSW 3 6 30.09 1019 3 4.82802 0 0
6:56 am 06:56 Mostly Clear with Mist and Fog 27 -2.7 27 -2.7 100 100 SSE 3 6 30.09 1019 4 6.43736 0 0
7:56 am 07:56 Partly Cloudy with Mist and Fog 31 -0.5 31 -0.5 100 100 S 5 7 30.12 1020 5 8.0467 0 0
8:56 am 08:56 Partly Cloudy with Mist and Fog 37 2.7 34 1.1 89 89 SSW 7 11 30.14 1021 5 8.0467 0 0
9:56 am 09:56 Hazy 42 5.5 36 2.2 80 80 SW 7 11 30.16 1021 6 9.65604 0 0
10:56 am 10:56 undefined 49 9.4 37 2.7 63 63 SSW 9 15 30.18 1022 7 11.26538 0 0
11:56 am 11:56 undefined 54 12.2 37 2.7 53 53 WSW 10 17 30.19 1022 7 11.26538 0 0
12:56 pm 12:56 Sunny 58 14.4 37 2.7 46 46 W 7 11 30.18 1022 7 11.26538 0 0
1:56 pm 13:56 Sunny 61 16.1 36 2.2 39 39 WSW 9 15 30.16 1021 7 11.26538 0 0
2:56 pm 14:56 Sunny 63 17.2 33 0.5 33 33 VRB 3 6 30.13 1020 7 11.26538 0 0
3:56 pm 15:56 Sunny 65 18.3 33 0.5 30 30 SW 6 9 30.11 1020 7 11.26538 0 0
4:56 pm 16:56 Sunny 65 18.3 31 -0.5 28 28 VRB 5 7 30.11 1020 7 11.26538 0 0
5:56 pm 17:56 Sunny 65 18.3 32 0 29 29 VRB 6 9 30.11 1020 7 11.26538 0 0
6:56 pm 18:56 Sunny 63 17.2 33 0.5 33 33 SSE 9 15 30.11 1020 7 11.26538 0 0
7:56 pm 19:56 Hazy 43 6.1 36 2.2 76 76 N 9 15 29.98 1015 5 8.0467 0 0
8:56 pm 20:56 Clear 55 12.7 33 0.5 43 43 SE 6 9 30.11 1020 8 12.87472 0 0
9:56 pm 21:56 Clear 55 12.7 32 0 42 42 SSE 6 9 30.1 1019 8 12.87472 0 0
10:56 pm 22:56 Clear 48 8.8 33 0.5 56 56 SSE 9 15 30.09 1019 8 12.87472 0 0
11:56 pm 23:56 Clear 50 10 32 0 50 50 SE 8 13 30.08 1019 8 12.87472 0 0

Powered by AerisWeather